Miscellaneous Local Product
Issued by NWS Hastings, NE

Home | Current Version | Previous Version | Graphics & Text | Print | Product List | Glossary On
Versions: 1 2 3 4 5 6 7 8 9 10 11 12 13 14 15 16 17 18 19 20 21 22 23 24 25 26 27 28 29 30 31 32 33 34 35 36 37 38 39 40 41 42 43 44 45 46 47 48 49 50
000
AXUS43 KGID 200402
MISGRI

GID CWA HOURLY WEATHER ROUNDUP
NATIONAL WEATHER SERVICE HASTINGS NE
1100 PM CDT TUE AUG 19 2014

NOTE: "FAIR" INDICATES FEW OR NO CLOUDS BELOW 12,000 FEET WITH NO
SIGNIFICANT WEATHER AND/OR OBSTRUCTIONS TO VISIBILITY.

...SOUTH CENTRAL NEBRASKA...

CITY           SKY/WX    TMP DP  RH WIND       PRES   REMARKS
GRAND ISLAND   PTCLDY    76  69  79 SE7       29.80S
HASTINGS       MOCLDY    77  66  68 SE10      29.79S
KEARNEY        MOCLDY    73  70  88 E8        29.79S
ORD            PTCLDY    73  69  87 SE5       29.78S
AURORA         PTCLDY    75  74  97 E5        29.79S
LEXINGTON      MOCLDY    75  67  76 SE7       29.78S
HOLDREGE       MOCLDY    75  64  67 SE10      29.79R
HEBRON         PTCLDY    75  65  73 SE5       29.78S

...NEBRASKA PANHANDLE...

CITY           SKY/WX    TMP DP  RH WIND       PRES   REMARKS
CHADRON        PTCLDY    76  49  38 NE7       29.75R
ALLIANCE       MOCLDY    69  53  56 S13       29.81R
SCOTTSBLUFF    CLOUDY    69  57  65 SE6       29.85R
SIDNEY         CLOUDY    66  58  75 SE12      29.88F

...WESTERN AND NORTH CENTRAL NEBRASKA...

CITY           SKY/WX    TMP DP  RH WIND       PRES   REMARKS
VALENTINE      CLOUDY    78  66  66 S16       29.80R
AINSWORTH      CLOUDY    74  66  75 SE9       29.81R
ONEILL         MOCLDY    74  68  79 SE8       29.81S
BROKEN BOW     CLOUDY    75  70  84 SE8       29.80R
IMPERIAL       LGT RAIN  68  61  78 N14       29.84F
NORTH PLATTE   CLOUDY    73  68  84 SE10      29.78S
MCCOOK         CLOUDY    84  59  42 S8        29.78R THUNDER

...EASTERN NEBRASKA...

CITY           SKY/WX    TMP DP  RH WIND       PRES   REMARKS
NORFOLK        MOCLDY    72  65  78 SE7       29.81R
SO SIOUX CITY  PTCLDY    72  66  81 E6        29.80S
TEKAMAH        MOCLDY    70  66  87 CALM      29.80S
COLUMBUS       CLEAR     72  66  83 E8        29.81S
ALBION         CLEAR     73  66  79 SE6       29.81S
OMAHA EPPLEY   MOCLDY    77  64  64 SE6       29.80S
OFFUTT AFB     PTCLDY    71  71  99 E5        29.79F
MILLARD        MOCLDY    78  69  73 SE3       29.79S
LINCOLN        PTCLDY    79  70  74 SE7       29.79F
NEBRASKA CITY  MOCLDY    76  70  82 SE6       29.80S
BEATRICE       CLEAR     77  73  87 SE5       29.78S
FALLS CITY     PTCLDY    76  73  91 E3        29.79R

...NORTHERN KANSAS...

CITY           SKY/WX    TMP DP  RH WIND       PRES   REMARKS
GOODLAND       CLOUDY    80  51  36 SW5       29.86R
HILL CITY      PTCLDY    81  62  52 S12       29.78R
NORTON         CLEAR     79  57  47 S9        29.77S
PHILLIPSBURG   CLEAR     79  64  61 SE6       29.77S
SMITH CENTER   CLEAR     73  64  73 SE7       29.79R
BELOIT         CLEAR     79  66  65 SE6       29.77R
HAYS           CLEAR     79  61  53 S12       29.80S
RUSSELL        CLEAR     78  62  57 S10       29.79R
CONCORDIA      PTCLDY    76  69  79 S9        29.79R
SALINA         CLEAR     81  67  62 S12       29.79R
TOPEKA         CLEAR     81  72  74 S3        29.80R



USA.gov is the U.S. government's official web portal to all federal, state and local government web resources and services.